Freeport, IL

10:15 AM CST on December 14, 2019 (GMT -0600)
Albertus

Weather History for KFEP - November, 2019

Change the Weather History Date:

Tuesday, November 12, 2019

  Actual Average Record
Temperature  
Mean Temperature 8 °F -  
Max Temperature 14 °F 43 °F 62 °F (2005)
Min Temperature 1 °F 26 °F 1 °F (2019)
Degree Days  
Heating Degree Days 58    
Moisture  
Dew Point -2 °F    
Average Humidity 63    
Maximum Humidity 74    
Minimum Humidity 43    
Precipitation  
Precipitation 0.00 in - - ()
Sea Level Pressure  
Sea Level Pressure 30.47 in    
Wind  
Wind Speed 8 mph (West)    
Max Wind Speed 12 mph    
Max Gust Speed 16 mph    
Visibility 10 miles    
Events      
Averages and records for this station are not official NWS values.
T = Trace of Precipitation, MM = Missing Value Source: NWS Daily Summary

Daily Weather History Graph

Daily Weather History Graph

Search for Another Location

Airport or City:

Astronomy

Nov. 12, 2019 Rise Set
Actual Time 6:44 AM CST 4:39 PM CST
Civil Twilight 6:14 AM CST 5:09 PM CST
Nautical Twilight 5:41 AM CST 5:43 PM CST
Astronomical Twilight 5:08 AM CST 6:16 PM CST
Moon 5:07 PM CST (11/12) 6:35 AM CST (11/12)
Length of Visible Light 10h 54m
Length of Day
9h 54m
Full, 100% of the Moon is Illuminated
Nov 12
Full
Nov 19
Last Quarter
Nov 26
New
Dec 4
First Quarter
Dec 11
Full

Hourly Weather History & Observations

Time (CST) Temp. Windchill Dew Point Humidity Pressure Visibility Wind Dir Wind Speed Gust Speed Precip Events Conditions
12:15 AM 8.8 °F -4.4 °F -0.8 °F 65% 30.49 in 10.0 mi NNW 9.2 mph - N/A   Clear
12:35 AM 8.4 °F -3.9 °F -0.6 °F 67% 30.49 in 10.0 mi NNW 8.1 mph - N/A   Clear
12:55 AM 7.5 °F -3.9 °F -0.8 °F 69% 30.50 in 10.0 mi NW 6.9 mph - N/A   Clear
1:15 AM 6.1 °F -5.6 °F -1.5 °F 71% 30.50 in 10.0 mi NW 6.9 mph - N/A   Clear
1:35 AM 6.1 °F -6.8 °F -1.8 °F 70% 30.50 in 10.0 mi NW 8.1 mph - N/A   Clear
1:55 AM 6.1 °F -5.6 °F -2.0 °F 69% 30.51 in 10.0 mi NW 6.9 mph - N/A   Clear
2:15 AM 5.0 °F -8.1 °F -2.4 °F 72% 30.51 in 10.0 mi NW 8.1 mph - N/A   Clear
2:35 AM 5.0 °F -9.1 °F -2.6 °F 71% 30.51 in 10.0 mi NW 9.2 mph - N/A   Clear
2:55 AM 5.5 °F -7.4 °F -2.2 °F 70% 30.51 in 10.0 mi NW 8.1 mph - N/A   Clear
3:15 AM 5.0 °F -8.1 °F -2.9 °F 70% 30.51 in 10.0 mi NW 8.1 mph - N/A   Clear
3:35 AM 4.3 °F -10.0 °F -3.3 °F 71% 30.51 in 10.0 mi NW 9.2 mph - N/A   Clear
3:55 AM 5.0 °F -9.1 °F -3.1 °F 69% 30.51 in 10.0 mi WNW 9.2 mph 16.1 mph N/A   Clear
4:15 AM 2.5 °F -11.1 °F -4.2 °F 74% 30.51 in 10.0 mi WNW 8.1 mph - N/A   Clear
4:35 AM 2.3 °F -10.2 °F -4.2 °F 74% 30.51 in 10.0 mi WNW 6.9 mph - N/A   Clear
4:55 AM 2.3 °F -10.2 °F -4.2 °F 74% 30.52 in 10.0 mi NW 6.9 mph - N/A   Clear
5:15 AM 2.1 °F -10.4 °F -4.5 °F 74% 30.52 in 10.0 mi NW 6.9 mph - N/A   Clear
5:35 AM 2.1 °F -10.4 °F -4.7 °F 73% 30.52 in 10.0 mi NW 6.9 mph - N/A   Clear
5:55 AM 1.9 °F -9.2 °F -4.9 °F 73% 30.53 in 10.0 mi WNW 5.8 mph - N/A   Clear
6:15 AM 2.8 °F -6.6 °F -4.5 °F 71% 30.53 in 10.0 mi WNW 4.6 mph - N/A   Clear
6:35 AM 1.4 °F -9.9 °F -5.1 °F 74% 30.53 in 10.0 mi West 5.8 mph - N/A   Clear
6:55 AM 1.4 °F -12.5 °F -5.1 °F 74% 30.53 in 10.0 mi WNW 8.1 mph - N/A   Clear
7:15 AM 2.3 °F -11.4 °F -4.9 °F 72% 30.54 in 10.0 mi WNW 8.1 mph - N/A   Clear
7:35 AM 2.8 °F -9.5 °F -4.9 °F 70% 30.54 in 10.0 mi WNW 6.9 mph - N/A   Clear
7:55 AM 4.1 °F -5.1 °F -4.2 °F 69% 30.54 in 10.0 mi WNW 4.6 mph - N/A   Clear
8:35 AM 6.3 °F -7.5 °F -3.3 °F 65% 30.55 in 10.0 mi NW 9.2 mph - N/A   Clear
8:55 AM 7.5 °F -6.9 °F -3.1 °F 62% 30.55 in 10.0 mi NW 10.4 mph - N/A   Clear
9:15 AM 8.2 °F -6.8 °F -2.9 °F 60% 30.55 in 10.0 mi NNW 11.5 mph - N/A   Clear
9:35 AM 8.6 °F -3.7 °F -2.9 °F 60% 30.55 in 10.0 mi NW 8.1 mph - N/A   Clear
9:55 AM 9.5 °F -1.5 °F -2.4 °F 59% 30.55 in 10.0 mi NNW 6.9 mph - N/A   Clear
10:15 AM 10.0 °F -2.9 °F -2.7 °F 56% 30.55 in 10.0 mi NW 9.2 mph - N/A   Clear
10:35 AM 10.4 °F -1.5 °F -3.3 °F 54% 30.55 in 10.0 mi NNW 8.1 mph - N/A   Clear
11:15 AM 12.0 °F 0.5 °F -4.2 °F 48% 30.53 in 10.0 mi WNW 8.1 mph - N/A   Clear
11:55 AM 12.6 °F 1.1 °F -4.9 °F 46% 30.52 in 10.0 mi NW 8.1 mph - N/A   Clear
12:15 PM 12.9 °F 1.6 °F -4.9 °F 45% 30.52 in 10.0 mi NNW 8.1 mph - N/A   Clear
12:35 PM 13.6 °F 1.6 °F -1.8 °F 50% 30.51 in 10.0 mi West 9.2 mph - N/A   Clear
12:55 PM 13.5 °F 2.2 °F -2.7 °F 49% 30.50 in 10.0 mi West 8.1 mph - N/A   Clear
1:15 PM 14.0 °F 3.9 °F -4.0 °F 45% 30.49 in 10.0 mi WNW 6.9 mph - N/A   Clear
1:35 PM 14.2 °F 3.1 °F -3.3 °F 46% 30.48 in 10.0 mi West 8.1 mph - N/A   Clear
1:55 PM 14.4 °F 3.3 °F -2.6 °F 47% 30.48 in 10.0 mi West 8.1 mph - N/A   Clear
2:15 PM 14.7 °F 3.8 °F -3.6 °F 44% 30.48 in 10.0 mi WSW 8.1 mph - N/A   Clear
2:35 PM 14.7 °F 3.8 °F -4.0 °F 43% 30.47 in 10.0 mi WSW 8.1 mph - N/A   Clear
2:55 PM 14.7 °F 5.9 °F -3.1 °F 45% 30.47 in 10.0 mi WSW 5.8 mph - N/A   Clear
3:15 PM 14.9 °F 6.1 °F -3.8 °F 43% 30.47 in 10.0 mi WSW 5.8 mph - N/A   Clear
3:35 PM 14.2 °F 2.2 °F -1.3 °F 50% 30.46 in 10.0 mi SW 9.2 mph - N/A   Clear
3:55 PM 12.9 °F 1.6 °F 0.9 °F 59% 30.46 in 10.0 mi SW 8.1 mph - N/A   Clear
4:15 PM 12.2 °F 0.7 °F 1.2 °F 61% 30.45 in 10.0 mi SW 8.1 mph - N/A   Clear
4:35 PM 11.3 °F -0.4 °F 0.7 °F 62% 30.46 in 10.0 mi SW 8.1 mph - N/A   Clear
4:55 PM 10.9 °F -0.8 °F -0.2 °F 61% 30.45 in 10.0 mi SW 8.1 mph - N/A   Clear
5:15 PM 9.5 °F -2.6 °F -0.4 °F 64% 30.44 in 10.0 mi SW 8.1 mph - N/A   Clear
5:35 PM 8.1 °F -3.2 °F -1.3 °F 66% 30.43 in 10.0 mi SW 6.9 mph - N/A   Clear
5:55 PM 9.1 °F -4.0 °F -1.3 °F 63% 30.42 in 10.0 mi SW 9.2 mph - N/A   Clear
6:15 PM 9.9 °F -1.1 °F -1.5 °F 60% 30.41 in 10.0 mi SSW 6.9 mph - N/A   Clear
6:35 PM 10.8 °F -2.0 °F -1.1 °F 59% 30.41 in 10.0 mi SW 9.2 mph - N/A   Clear
6:55 PM 9.5 °F -2.6 °F -1.3 °F 62% 30.40 in 10.0 mi SSW 8.1 mph - N/A   Clear
7:15 PM 9.5 °F -1.5 °F -1.7 °F 61% 30.40 in 10.0 mi SSW 6.9 mph - N/A   Clear
7:35 PM 9.3 °F -1.7 °F -1.3 °F 62% 30.40 in 10.0 mi SSW 6.9 mph - N/A   Clear
7:55 PM 9.1 °F -0.7 °F -1.3 °F 63% 30.39 in 10.0 mi SSW 5.8 mph - N/A   Clear
8:15 PM 7.9 °F -3.5 °F -1.5 °F 66% 30.37 in 10.0 mi South 6.9 mph - N/A   Clear
8:35 PM 6.8 °F -5.9 °F -1.5 °F 69% 30.37 in 10.0 mi South 8.1 mph - N/A   Clear
8:55 PM 5.7 °F -4.8 °F -2.2 °F 70% 30.36 in 10.0 mi South 5.8 mph - N/A   Clear
9:15 PM 6.4 °F -5.2 °F -2.0 °F 68% 30.36 in 10.0 mi South 6.9 mph - N/A   Clear
9:35 PM 6.3 °F -4.1 °F -2.2 °F 68% 30.35 in 10.0 mi South 5.8 mph - N/A   Clear
9:55 PM 5.9 °F -4.5 °F -2.2 °F 69% 30.34 in 10.0 mi South 5.8 mph - N/A   Clear
10:15 PM 6.4 °F -5.2 °F -1.7 °F 69% 30.34 in 10.0 mi South 6.9 mph - N/A   Clear
10:35 PM 6.8 °F -2.0 °F -1.3 °F 69% 30.35 in 10.0 mi South 4.6 mph - N/A   Clear
10:55 PM 6.6 °F -3.7 °F -1.1 °F 71% 30.34 in 10.0 mi SSE 5.8 mph - N/A   Clear
11:15 PM 7.7 °F -0.9 °F -0.4 °F 70% 30.34 in 10.0 mi South 4.6 mph - N/A   Clear
11:35 PM 8.2 °F -3.0 °F 0.3 °F 70% 30.33 in 10.0 mi South 6.9 mph - N/A   Clear
11:55 PM 8.4 °F -1.6 °F 0.5 °F 70% 30.33 in 10.0 mi South 5.8 mph - N/A   Clear